Theta_e
300 301 302 305 308 309 311 314 316 316 316 311 309 311 312 314 315 317 315 312 313 313 313 313 314 314 314 310 312 312 311 313 313 311 310 307 309 309 310 311 311 309 312 314
296 296 298 300 301 303 308 312 315 313 315 316 313 311 313 313 315 315 316 318 315 316 316 316 313 313 311 312 311 310 310 311 314 311 311 307 307 308 309 310 310 312 313 312
295 295 294 297 299 301 303 310 313 308 309 312 313 315 313 313 313 314 314 315 315 315 315 313 315 314 313 313 311 312 312 312 313 314 313 311 310 308 307 309 311 311 311 311
295 295 295 295 295 298 300 304 309 310 310 309 311 312 312 314 314 314 315 315 315 316 316 315 315 313 312 311 311 310 312 312 310 311 312 311 311 311 310 310 309 309 310 310
294 294 295 293 294 295 297 302 306 307 309 310 311 310 311 312 313 313 314 315 314 314 315 315 316 313 314 315 311 312 311 314 310 311 310 310 310 310 310 310 310 311 310 310
294 294 294 294 293 294 296 299 301 301 302 306 308 309 309 310 310 310 311 313 313 314 314 313 313 314 314 313 314 311 309 310 312 314 311 311 312 311 312 312 312 311 311 311
294 293 294 294 293 293 295 296 297 298 299 301 302 305 305 304 305 305 304 303 306 309 309 309 309 312 311 312 312 313 313 311 312 314 313 314 311 311 310 311 312 312 311 312
294 293 293 293 293 293 294 295 296 295 296 298 298 299 299 299 299 301 302 302 303 304 305 307 310 311 312 312 311 311 312 313 314 314 315 313 312 312 311 311 312 311 311 311
293 293 293 293 293 292 293 293 293 294 296 295 295 296 296 297 296 297 299 301 300 300 305 307 309 311 310 313 310 309 311 312 314 315 316 316 313 311 310 310 312 310 311 311
293 293 293 293 293 293 292 293 293 293 294 294 294 294 294 295 296 297 297 295 296 298 302 304 307 309 309 311 312 312 310 311 313 314 315 314 312 310 309 311 312 310 311 310
292 292 293 293 293 292 292 292 293 293 294 294 293 293 293 293 293 295 295 293 294 296 297 298 300 304 304 304 305 308 310 310 311 311 312 312 307 308 311 308 307 305 304 305
292 292 293 293 292 293 292 292 292 292 293 293 293 293 293 293 293 293 294 293 293 294 294 295 297 295 296 298 299 301 302 299 298 300 304 303 303 299 297 302 300 300 301 301
292 292 292 292 292 292 292 292 291 292 293 293 292 292 291 292 291 292 292 292 292 292 291 292 292 294 295 292 292 292 293 295 297 296 301 297 294 296 298 296 295 294 295 295
291 291 291 292 292 292 292 292 291 291 293 293 292 292 292 291 292 292 292 291 291 291 291 291 288 286 292 291 292 292 291 291 291 291 292 294 295 295 294 293 293 293 293 295
290 290 291 291 292 292 291 292 291 291 292 293 292 291 291 291 291 292 291 290 291 291 292 290 289 290 289 289 291 290 290 291 291 291 292 292 292 291 291 291 288 288 290 290
291 291 291 291 291 291 291 292 291 290 291 292 292 291 291 291 291 290 290 290 290 291 291 290 291 291 290 287 288 290 290 291 291 290 286 286 287 289 289 285 285 285 284 286
290 290 290 291 291 290 291 292 291 291 291 291 291 291 291 291 291 292 291 291 291 291 291 291 291 290 290 290 289 290 290 289 286 283 282 284 284 281 284 281 282 281 283 283
290 290 290 290 290 290 291 291 291 290 290 290 290 290 290 290 290 289 290 290 291 291 291 290 290 289 290 289 289 289 282 281 282 279 277 277 278 279 280 278 276 276 277 277
290 290 290 290 290 290 291 291 291 291 290 291 291 286 284 289 289 289 289 289 289 290 289 289 287 287 286 288 288 281 277 276 276 277 276 278 277 275 277 274 273 272 273 273
289 289 289 289 290 290 290 290 289 290 290 290 290 290 290 288 288 288 288 289 289 284 285 288 285 287 288 282 279 276 275 274 273 272 273 274 274 272 273 271 270 270 270 269
289 288 289 289 289 289 288 289 289 289 286 288 289 289 288 289 287 287 289 287 286 286 282 282 278 279 286 276 274 273 272 272 271 270 270 270 269 269 269 270 268 267 266 266
288 288 289 289 289 289 287 287 286 286 283 285 282 287 288 288 289 286 288 286 286 285 280 280 279 285 273 271 271 271 270 270 269 268 268 268 266 266 266 265 266 265 265 265
288 289 288 289 289 289 289 288 285 280 280 285 286 281 287 287 288 288 287 287 287 279 281 280 281 272 268 268 268 268 269 268 267 267 266 266 265 265 264 264 264 264 264 265
288 289 289 288 287 286 281 280 279 282 285 284 284 284 286 288 286 288 287 286 283 284 283 280 270 266 266 266 266 266 266 266 265 264 264 264 264 264 264 264 264 264 265 266
288 287 286 287 286 281 279 280 280 277 279 281 282 281 284 282 285 287 284 285 285 283 280 268 266 264 264 264 263 263 263 263 262 262 263 263 263 263 263 264 264 265 265 265
287 287 284 279 279 278 277 276 274 274 276 279 280 280 284 283 283 283 280 280 280 277 262 264 263 263 263 262 262 262 261 261 262 262 263 263 263 263 263 264 264 265 265 265
285 276 275 275 272 270 269 270 270 273 274 278 281 284 284 282 285 284 270 272 263 262 262 262 262 262 261 261 261 261 261 261 262 262 263 263 263 263 263 264 264 265 265 265
Wind_Speed
23 22 22 26 28 26 19 12 4 10 15 9 7 9 8 18 22 23 6 2 9 14 10 15 25 25 19 27 2 9 8 2 5 15 8 2 6 11 12 10 16 4 12 23
12 14 16 16 13 13 9 7 10 11 24 8 8 5 19 22 19 17 6 11 12 15 16 9 12 15 16 14 6 5 10 3 2 8 14 2 5 6 11 11 11 19 18 22
12 14 11 11 11 9 9 6 4 7 22 17 9 14 11 17 24 22 27 19 17 14 17 18 10 12 13 26 10 16 3 3 10 14 16 15 12 11 11 13 11 20 21 26
12 11 11 11 12 12 7 9 7 9 4 8 16 14 6 18 20 27 23 8 26 23 16 20 22 21 27 19 21 4 6 11 19 24 25 25 23 24 25 23 19 21 25 29
13 14 13 12 11 9 14 6 4 5 7 18 14 16 18 28 27 23 21 27 23 20 24 26 28 20 19 20 3 12 10 10 13 24 31 32 29 29 25 32 30 31 34 30
15 14 13 12 8 10 7 11 12 5 11 11 8 13 15 7 13 21 31 28 26 25 26 30 39 40 36 22 10 7 7 7 8 19 23 27 24 33 38 34 31 30 29 38
16 17 17 16 12 11 14 12 8 5 10 9 13 14 7 9 10 8 11 19 17 14 30 37 30 33 24 24 22 21 17 19 14 18 16 23 17 22 31 36 35 33 34 37
18 18 18 19 16 15 16 15 13 6 6 11 18 17 16 22 25 19 20 28 22 19 21 9 15 7 8 20 27 26 23 22 15 14 19 24 4 23 25 20 33 34 30 32
19 19 19 19 18 18 18 20 18 14 6 9 15 10 12 10 11 15 21 15 21 17 4 6 12 15 15 7 5 17 26 25 20 19 22 25 17 21 26 28 22 13 24 28
24 23 21 20 21 20 19 25 23 19 14 25 18 10 7 9 13 11 11 7 10 9 5 12 16 18 8 10 12 8 7 14 24 23 20 13 5 16 14 15 22 21 27 27
25 24 23 21 20 23 23 27 26 27 19 30 22 26 22 17 17 9 5 10 6 4 9 10 15 14 7 8 13 16 8 8 8 14 20 29 16 10 15 14 23 29 31 31
24 23 24 24 22 23 23 29 26 26 28 20 8 14 25 23 24 24 14 7 6 5 4 5 5 7 7 8 6 1 6 2 4 6 6 10 14 15 33 23 23 24 24 30
26 26 26 25 25 24 23 27 27 23 27 28 32 28 39 38 35 33 10 20 16 11 21 5 4 8 3 4 4 13 9 14 7 14 3 24 44 47 25 24 27 28 26 27
30 28 24 24 25 25 24 27 27 26 16 5 10 17 20 25 21 22 25 33 30 25 22 6 3 2 7 8 8 8 10 17 14 22 21 26 23 26 36 40 37 32 35 29
31 26 25 26 25 26 27 28 29 30 27 5 4 11 17 16 19 26 30 32 32 23 9 5 6 4 7 6 11 12 13 15 13 17 22 23 28 37 33 34 38 35 27 36
28 26 24 25 25 25 25 24 32 33 34 13 5 10 19 23 28 32 29 30 32 25 9 5 10 25 12 5 8 13 25 32 31 19 24 28 30 31 35 39 41 38 44 47
26 26 27 25 27 27 28 10 3 8 20 13 4 4 12 30 27 27 24 27 23 23 21 11 17 20 21 12 14 21 33 24 25 14 23 18 19 21 36 36 44 43 48 48
24 25 25 28 29 29 32 35 30 22 15 8 3 2 1 7 8 6 21 15 19 15 14 11 7 14 12 9 20 21 10 17 19 11 15 17 29 29 42 38 32 41 49 47
22 23 25 27 26 24 29 26 25 30 23 3 4 4 4 8 6 6 3 7 4 13 7 10 7 5 6 12 8 3 4 6 18 31 28 25 30 36 45 38 37 33 42 44
20 18 11 7 13 18 18 8 7 10 4 7 2 4 2 7 8 3 2 5 3 3 4 8 4 12 28 10 6 5 6 8 13 21 24 36 42 36 46 46 36 32 39 48
12 7 9 13 9 10 7 6 6 6 2 5 6 13 6 11 4 4 7 3 3 3 5 5 3 3 3 6 3 4 9 14 18 22 28 28 32 40 46 53 41 40 39 41
11 8 7 14 10 6 4 4 3 3 5 4 3 4 6 4 7 3 5 3 2 5 2 3 3 4 8 3 9 16 20 25 29 31 36 37 33 36 38 44 47 44 41 42
13 7 6 6 5 5 6 6 3 3 3 5 6 2 5 5 8 3 3 5 5 1 2 5 5 7 7 17 24 29 32 33 37 40 39 40 40 37 36 42 42 42 41 40
8 5 6 5 3 3 4 3 3 2 3 5 4 2 3 7 2 4 4 5 2 3 3 6 2 9 21 27 31 35 39 40 41 42 40 38 38 40 39 36 38 39 38 36
4 3 3 3 3 5 5 6 6 5 4 2 1 3 4 3 3 3 2 2 4 5 5 2 9 20 27 31 33 35 37 39 39 36 39 40 38 38 39 36 33 28 30 27
5 3 1 1 3 2 4 6 5 4 2 1 0 2 3 5 3 4 6 3 6 3 2 11 19 24 31 33 35 36 36 35 36 39 37 36 36 35 35 32 25 25 22 21
3 2 4 6 8 5 3 2 1 4 2 1 1 5 7 3 4 3 3 3 1 7 16 17 21 30 35 35 36 36 35 34 35 34 33 34 32 28 27 26 23 19 17 14
Wind_Direction
282 279 284 282 274 272 271 260 244 232 205 162 195 224 212 236 255 252 248 200 233 258 294 293 285 289 285 358 189 170 206 203 258 241 225 261 232 215 203 222 240 236 236 259
310 301 284 287 298 299 249 239 248 234 202 227 222 258 235 237 262 248 228 229 212 234 254 257 253 269 274 303 34 54 354 302 268 280 296 359 229 240 250 253 252 247 244 253
317 322 314 290 276 270 247 260 248 186 211 222 233 236 237 244 242 253 252 258 260 248 252 241 248 245 262 256 219 190 67 283 272 259 261 288 284 258 241 240 254 258 256 270
301 310 315 318 295 255 262 225 237 217 201 247 245 240 202 242 249 238 243 224 229 236 246 252 246 243 256 260 265 238 170 230 224 239 245 260 262 260 273 273 257 252 268 268
287 303 303 301 297 290 248 249 278 329 277 263 251 238 252 252 258 249 242 235 241 235 236 237 252 225 236 243 276 206 189 230 216 236 241 251 260 265 260 252 256 255 253 259
287 285 285 290 278 275 262 252 260 279 262 264 268 251 265 264 271 272 278 280 275 269 257 250 246 252 262 267 233 212 199 202 208 244 237 244 250 244 250 256 251 244 251 250
283 281 274 273 271 258 261 262 283 250 267 265 261 277 284 305 307 287 294 307 298 301 303 306 301 282 270 261 251 224 228 232 238 252 249 231 227 229 233 243 248 250 249 251
280 280 276 277 265 254 257 263 272 255 265 263 269 278 285 304 298 287 281 288 279 296 307 288 280 268 252 244 234 233 228 235 248 244 241 257 226 218 223 230 241 245 257 258
277 277 276 274 274 263 258 259 263 252 278 242 268 291 300 298 298 296 283 291 306 304 273 250 259 257 260 251 268 228 234 232 235 241 249 252 239 236 245 257 261 241 242 248
269 267 265 269 273 272 261 260 258 250 256 268 257 249 268 287 285 282 297 333 329 314 263 266 267 269 269 249 261 239 226 230 241 239 245 251 238 270 291 246 263 268 264 262
277 275 267 266 270 271 268 264 257 250 253 264 253 248 264 262 262 275 335 341 260 272 255 268 276 279 305 304 288 273 269 276 256 260 267 267 4 295 247 330 354 0 352 346
277 274 268 265 262 263 264 264 262 259 247 252 241 242 245 244 252 265 262 251 303 249 287 308 333 312 307 297 281 338 273 351 307 311 328 319 336 331 316 306 330 340 332 322
274 270 267 265 262 263 264 264 266 259 252 254 252 253 263 257 262 252 242 263 257 252 257 278 274 263 349 296 301 318 302 296 307 323 311 311 315 318 353 351 338 329 326 313
271 262 264 268 267 265 258 261 263 253 252 258 257 256 236 255 269 238 240 243 255 262 271 258 252 232 232 262 276 280 285 306 295 285 284 300 303 318 321 324 323 331 323 323
268 262 265 266 268 272 269 260 261 252 238 285 275 256 246 251 255 243 245 243 244 247 253 241 249 247 258 250 267 268 264 267 279 285 298 302 309 317 323 320 330 327 322 322
261 259 262 267 269 268 271 263 257 251 243 249 254 268 254 254 244 243 235 234 235 234 235 242 233 241 244 251 250 261 268 271 276 301 314 308 309 308 314 322 316 312 315 314
261 263 263 266 267 261 244 240 218 238 225 227 239 233 243 242 243 234 239 238 234 232 238 232 246 251 256 266 268 271 272 289 293 330 329 325 327 316 316 318 314 316 313 311
261 266 269 271 267 263 254 247 243 247 237 260 271 225 150 239 194 211 224 218 223 223 230 237 242 253 256 261 262 278 315 309 305 310 323 294 302 307 309 314 316 316 313 313
266 267 274 276 264 248 243 251 240 232 222 236 213 178 236 180 220 207 201 229 238 237 228 239 246 241 237 253 289 274 318 315 303 311 314 323 314 312 315 314 317 314 308 311
266 273 273 242 237 231 193 169 196 210 244 221 199 148 208 185 199 208 187 222 215 225 233 242 215 248 257 265 234 252 308 322 323 327 326 321 314 311 311 309 308 305 302 304
254 242 235 236 189 170 158 181 197 180 232 230 227 209 223 235 191 208 213 205 218 212 239 174 242 257 229 155 169 302 317 313 312 305 301 300 295 299 305 306 305 304 302 299
226 248 217 168 182 184 160 189 135 203 210 211 176 216 204 234 199 144 221 211 229 239 198 107 255 233 108 84 333 325 323 322 320 322 317 314 301 302 299 297 301 304 304 303
231 229 211 204 189 200 194 161 177 187 190 204 197 234 184 206 207 208 226 223 226 79 132 214 217 92 36 345 338 331 329 327 323 323 319 318 314 308 301 300 303 306 305 309
196 221 201 197 170 226 194 183 151 122 122 146 170 199 192 216 209 237 230 237 93 224 237 229 75 14 342 338 335 331 328 328 325 322 322 315 312 311 309 307 310 310 310 310
226 169 228 216 97 63 50 81 103 61 86 85 209 256 224 229 255 227 240 259 230 214 225 56 351 333 332 329 329 326 324 324 320 318 315 316 316 313 312 318 320 322 315 318
198 203 197 82 51 99 74 44 81 28 50 104 200 278 261 226 205 192 222 202 224 264 3 322 325 323 324 322 323 323 323 319 314 316 318 317 315 315 315 324 331 332 331 332
167 108 94 89 86 87 119 115 66 9 45 224 274 220 220 325 248 227 35 238 348 333 320 321 319 319 320 325 324 323 324 318 320 322 323 321 324 325 328 338 346 345 345 348